Latest Weather Observations for Gladstone

IDQ60801

Issued at 10:02 am EST Sunday 5 July 2015 (issued every 30 minutes, with the page automatically refreshed every 10 minutes)

About weather observations | Map of weather stations | Latest weather observations for QLD | Other Formats
Station Details ID: 039123 Name: GLADSTONE RADAR Lat: -23.86 Lon: 151.26 Height: 74.5 m
Data from the previous 72 hours. | See also: Recent months at Gladstone
Date/Time
EST
Temp
°C
App
Temp
°C
Dew
Point
Rel
Hum
%
Delta-T
°C
Wind Press
QNH
hPa
Press
MSL
hPa
Rain
since 9 am
mm
Dir
 
Spd
km/h
Gust
km/h
Spd
kts
Gust
kts
05/10:00am 20.2 17.2 12.7 62 4.2 SE 20 32 11 17 1022.4 1022.2 0.0
05/09:30am 19.5 17.7 13.2 67 3.6 SE 15 30 8 16 1022.5 1022.3 0.0
05/09:00am 20.1 19.1 14.5 70 3.3 SE 13 22 7 12 1022.5 1022.3 0.0
05/08:30am 17.8 17.4 13.1 74 2.6 S 7 11 4 6 1022.4 1022.2 0.0
05/08:00am 17.1 16.6 12.6 75 2.5 S 7 9 4 5 1021.9 1021.7 0.0
05/07:30am 16.5 15.1 12.3 76 2.3 SSW 11 17 6 9 1021.5 1021.3 0.0
05/07:00am 16.4 14.3 12.4 77 2.2 SSW 15 19 8 10 1021.2 1021.0 0.0
05/06:30am 16.4 14.4 12.6 78 2.1 SSW 15 19 8 10 1021.0 1020.8 0.0
05/06:00am 16.3 15.1 12.8 80 1.9 SSW 11 17 6 9 1020.7 1020.5 0.0
05/05:30am 16.5 15.4 13.0 80 2.0 SW 11 17 6 9 1020.5 1020.3 0.0
05/05:00am 16.9 15.8 13.2 79 2.1 S 11 17 6 9 1020.1 1019.9 0.0
05/04:30am 16.9 15.0 13.0 78 2.2 SSE 15 22 8 12 1020.0 1019.8 0.0
05/04:00am 17.1 15.3 13.2 78 2.2 SSE 15 22 8 12 1019.9 1019.7 0.0
05/03:30am 17.1 14.9 13.4 79 2.1 SSE 17 22 9 12 1019.9 1019.7 0.0
05/03:00am 16.9 15.2 13.6 81 1.9 SSE 15 22 8 12 1020.0 1019.8 0.0
05/02:30am 16.5 14.3 13.4 82 1.7 SSE 17 24 9 13 1020.1 1019.9 0.0
05/02:00am 16.5 14.2 13.0 80 1.9 SSE 17 24 9 13 1020.5 1020.3 0.0
05/01:30am 16.9 14.6 13.0 78 2.2 SSE 17 24 9 13 1020.8 1020.6 0.0
05/01:00am 16.9 15.2 12.4 75 2.5 SSE 13 24 7 13 1021.1 1020.9 0.0
05/12:30am 17.2 15.0 12.1 72 2.8 SSE 15 20 8 11 1021.4 1021.2 0.0
 
Date/Time
EST
Temp
°C
App
Temp
°C
Dew
Point
Rel
Hum
%
Delta-T
°C
Wind Press
QNH
hPa
Press
MSL
hPa
Rain
since 9 am
mm
Dir
 
Spd
km/h
Gust
km/h
Spd
kts
Gust
kts
04/11:30pm 17.0 14.6 11.5 70 3.0 SSE 15 20 8 11 1021.6 1021.4 0.0
04/11:00pm 17.0 14.5 11.1 68 3.2 SSE 15 20 8 11 1021.7 1021.5 0.0
04/10:30pm 16.9 14.0 11.0 68 3.2 SE 17 22 9 12 1021.9 1021.7 0.0
04/10:00pm 17.2 13.9 11.0 67 3.3 SE 19 24 10 13 1022.0 1021.8 0.0
04/09:30pm 17.6 15.2 11.4 67 3.4 SSE 15 20 8 11 1022.0 1021.8 0.0
04/09:00pm 17.6 15.3 11.6 68 3.3 SSE 15 24 8 13 1022.0 1021.8 0.0
04/08:30pm 17.6 15.3 11.8 69 3.2 SSE 15 26 8 14 1021.8 1021.6 0.0
04/08:00pm 17.8 15.5 12.9 73 2.7 SE 17 22 9 12 1021.7 1021.5 0.0
04/07:30pm 17.9 15.7 13.4 75 2.6 SE 17 22 9 12 1021.6 1021.4 0.0
04/07:00pm 17.9 15.7 13.4 75 2.5 E 17 24 9 13 1021.1 1020.9 0.0
04/06:30pm 18.0 15.0 12.7 71 3.0 E 20 28 11 15 1020.7 1020.5 0.0
04/06:00pm 18.1 15.0 12.3 69 3.2 E 20 28 11 15 1020.4 1020.2 0.0
04/05:30pm 18.6 14.8 12.4 67 3.5 E 24 33 13 18 1020.2 1020.0 0.0
04/05:00pm 19.1 15.7 12.4 65 3.7 E 22 30 12 16 1019.9 1019.7 0.0
04/04:30pm 19.8 16.8 12.6 63 4.1 E 20 30 11 16 1019.7 1019.5 0.0
04/04:00pm 20.7 17.6 12.1 58 4.8 E 20 32 11 17 1019.4 1019.2 0.0
04/03:30pm 21.2 17.3 12.1 56 5.1 E 24 32 13 17 1019.4 1019.2 0.0
04/03:00pm 21.6 17.8 11.0 51 5.8 E 22 35 12 19 1019.2 1019.1 0.0
04/02:30pm 21.7 17.4 10.8 50 6.0 E 24 35 13 19 1019.1 1019.0 0.0
04/02:00pm 22.2 17.5 10.7 48 6.3 E 26 33 14 18 1019.2 1019.1 0.0
04/01:30pm 22.8 19.3 10.3 45 6.9 E 19 33 10 18 1019.4 1019.2 0.0
04/01:00pm 22.0 18.8 11.1 50 6.0 ESE 19 28 10 15 1019.6 1019.4 0.0
04/12:30pm 22.4 19.5 12.4 53 5.7 E 19 26 10 14 1020.1 1019.9 0.0
04/12:00pm 21.5 17.8 11.5 53 5.6 ESE 22 33 12 18 1020.7 1020.5 0.0
04/11:30am 21.5 17.8 11.5 53 5.6 ESE 22 35 12 19 1021.2 1021.0 0.0
04/11:00am 20.7 17.4 11.6 56 5.0 ESE 20 30 11 16 1021.5 1021.3 0.0
04/10:30am 20.2 16.8 11.4 57 4.9 SE 20 32 11 17 1021.7 1021.5 0.0
04/10:00am 19.7 17.7 11.5 59 4.5 SE 13 28 7 15 1021.9 1021.7 0.0
04/09:30am 18.3 16.3 11.4 64 3.8 SSE 13 22 7 12 1022.1 1021.9 0.0
04/09:00am 17.2 14.7 11.0 67 3.3 SSE 15 22 8 12 1022.2 1022.0 0.0
04/08:30am 16.6 15.1 10.7 68 3.2 S 9 17 5 9 1022.3 1022.1 0.0
04/08:00am 15.3 13.9 9.4 68 3.0 SSW 7 13 4 7 1022.4 1022.2 0.0
04/07:30am 15.1 12.9 9.5 69 2.9 SSW 11 20 6 11 1022.2 1022.0 0.0
04/07:00am 14.4 12.4 8.8 69 2.8 SSW 9 17 5 9 1021.9 1021.7 0.0
04/06:30am 15.1 13.2 9.0 67 3.1 SSW 9 15 5 8 1021.3 1021.1 0.0
04/06:00am 15.0 12.6 8.7 66 3.2 S 11 20 6 11 1021.1 1020.9 0.0
04/05:30am 15.3 12.0 8.1 62 3.6 S 15 28 8 15 1020.9 1020.7 0.0
04/05:00am 15.5 12.1 7.8 60 3.8 SSE 15 26 8 14 1020.8 1020.6 0.0
04/04:30am 15.2 11.9 8.0 62 3.6 S 15 24 8 13 1020.6 1020.4 0.0
04/04:00am 13.4 10.4 6.0 61 3.5 S 11 19 6 10 1020.8 1020.6 0.0
04/03:30am 14.3 11.2 5.7 56 4.1 SSE 11 19 6 10 1020.7 1020.5 0.0
04/03:00am 14.7 12.0 5.8 55 4.2 SSE 9 19 5 10 1020.6 1020.4 0.0
04/02:30am 15.0 11.6 5.8 54 4.4 S 13 22 7 12 1020.7 1020.5 0.0
04/02:00am 15.1 11.2 5.3 52 4.6 S 15 22 8 12 1020.9 1020.7 0.0
04/01:30am 15.2 10.8 4.9 50 4.9 S 17 26 9 14 1021.1 1020.9 0.0
04/01:00am 14.9 10.8 4.3 49 4.9 S 15 20 8 11 1021.7 1021.5 0.0
04/12:30am 14.8 10.9 5.3 53 4.5 S 15 20 8 11 1021.7 1021.5 0.0
04/12:00am 14.8 11.0 5.9 55 4.3 S 15 19 8 10 1022.0 1021.8 0.0
 
Date/Time
EST
Temp
°C
App
Temp
°C
Dew
Point
Rel
Hum
%
Delta-T
°C
Wind Press
QNH
hPa
Press
MSL
hPa
Rain
since 9 am
mm
Dir
 
Spd
km/h
Gust
km/h
Spd
kts
Gust
kts
03/11:30pm 15.0 11.2 6.0 55 4.3 S 15 22 8 12 1022.3 1022.1 0.0
03/11:00pm 15.1 11.4 6.4 56 4.2 S 15 24 8 13 1022.3 1022.1 0.0
03/10:30pm 15.5 11.5 6.8 56 4.3 S 17 24 9 13 1022.2 1022.0 0.0
03/10:00pm 15.7 12.0 6.2 53 4.6 SSE 15 22 8 12 1022.3 1022.1 0.0
03/09:30pm 15.8 11.9 5.4 50 5.0 SSE 15 19 8 10 1022.3 1022.1 0.0
03/09:00pm 16.3 12.4 5.3 48 5.2 S 15 19 8 10 1022.3 1022.1 0.0
03/08:30pm 16.4 12.4 4.8 46 5.5 S 15 19 8 10 1022.2 1022.0 0.0
03/08:00pm 16.5 12.4 4.5 45 5.6 S 15 19 8 10 1022.1 1021.9 0.0
03/07:30pm 16.6 12.4 4.0 43 5.9 S 15 19 8 10 1021.7 1021.5 0.0
03/07:00pm 16.6 12.4 4.0 43 5.9 S 15 19 8 10 1021.5 1021.3 0.0
03/06:30pm 16.7 12.9 4.1 43 5.9 S 13 17 7 9 1021.3 1021.1 0.0
03/06:00pm 17.2 13.1 4.2 42 6.1 SSE 15 22 8 12 1021.1 1020.9 0.0
03/05:30pm 17.0 13.4 5.0 45 5.7 SSE 13 20 7 11 1020.9 1020.7 0.0
03/05:00pm 17.7 14.1 5.0 43 6.1 SSE 13 20 7 11 1020.5 1020.3 0.0
03/04:30pm 18.3 14.6 4.5 40 6.6 S 13 20 7 11 1020.2 1020.0 0.0
03/04:00pm 18.6 15.0 4.8 40 6.6 SSE 13 20 7 11 1019.7 1019.5 0.0
03/03:30pm 18.8 15.2 4.9 40 6.7 SE 13 20 7 11 1019.5 1019.3 0.0
03/03:00pm 18.7 14.5 5.5 42 6.4 SSE 17 24 9 13 1019.2 1019.1 0.0
03/02:30pm 19.6 16.3 6.3 42 6.7 SE 13 22 7 12 1019.5 1019.3 0.0
03/02:00pm 18.8 14.4 4.9 40 6.7 SE 17 32 9 17 1019.6 1019.4 0.0
03/01:30pm 19.3 15.0 5.4 40 6.8 ESE 17 28 9 15 1019.9 1019.7 0.0
03/01:00pm 18.5 13.9 3.6 37 7.0 SE 17 28 9 15 1020.3 1020.1 0.0
03/12:30pm 19.3 16.0 4.6 38 7.1 ESE 11 19 6 10 1020.6 1020.4 0.0
03/12:00pm 18.2 12.7 2.1 34 7.3 ESE 20 30 11 16 1021.1 1020.9 0.0
03/11:30am 18.0 14.5 3.5 38 6.8 ESE 11 19 6 10 1021.5 1021.3 0.0
03/11:00am 17.0 13.8 3.3 40 6.3 ESE 9 20 5 11 1021.7 1021.5 0.0
03/10:30am 15.5 12.8 3.6 45 5.5 S 7 17 4 9 1021.8 1021.6 0.0
03/10:00am 14.2 10.7 3.4 48 4.9 SW 11 19 6 10 1021.9 1021.7 0.0
03/09:30am 13.2 9.8 3.8 53 4.3 SSW 11 22 6 12 1021.9 1021.7 0.0
03/09:00am 12.0 7.4 3.8 57 3.7 SSW 17 33 9 18 1021.7 1021.5 0.0
03/08:30am 11.2 7.4 4.0 61 3.2 SSW 13 22 7 12 1021.5 1021.3 0.0
03/08:00am 10.5 6.2 3.3 61 3.1 SW 15 28 8 15 1021.0 1020.8 0.0
03/07:30am 9.6 5.7 3.4 65 2.7 SW 13 24 7 13 1020.7 1020.5 0.0
03/07:00am 9.5 5.2 3.3 65 2.7 SW 15 30 8 16 1020.4 1020.2 0.0
03/06:30am 9.9 5.1 2.7 61 3.1 SW 17 32 9 17 1020.2 1020.0 0.0
03/06:00am 10.7 5.2 2.0 55 3.7 SSW 20 35 11 19 1019.8 1019.6 0.0
03/05:30am 10.7 5.5 2.3 56 3.6 SSW 19 32 10 17 1019.6 1019.4 0.0
03/05:00am 10.2 5.1 3.3 62 3.0 SSW 19 28 10 15 1019.5 1019.3 0.0
03/04:30am 10.7 6.0 3.3 60 3.2 SW 17 32 9 17 1019.2 1019.1 0.0
03/04:00am 11.0 6.4 3.5 60 3.3 SSW 17 26 9 14 1019.2 1019.1 0.0
03/03:30am 11.3 7.2 4.3 62 3.2 SSW 15 26 8 14 1019.5 1019.3 0.0
03/03:00am 11.9 7.8 4.4 60 3.4 SW 15 30 8 16 1019.5 1019.3 0.0
03/02:30am 12.5 7.5 4.7 59 3.6 SSW 20 33 11 18 1019.6 1019.4 0.0
03/02:00am 12.9 8.2 5.3 60 3.5 SSW 19 28 10 15 1019.9 1019.7 0.0
03/01:30am 13.1 8.9 5.5 60 3.6 SSW 17 26 9 14 1020.3 1020.1 0.0
03/01:00am 13.3 9.5 5.9 61 3.5 SW 15 20 8 11 1020.7 1020.5 0.0
03/12:30am 13.0 10.0 6.1 63 3.3 SW 11 17 6 9 1020.8 1020.6 0.0
03/12:00am 13.3 10.8 6.4 63 3.3 WSW 9 17 5 9 1020.9 1020.7 0.0
 
Date/Time
EST
Temp
°C
App
Temp
°C
Dew
Point
Rel
Hum
%
Delta-T
°C
Wind Press
QNH
hPa
Press
MSL
hPa
Rain
since 9 am
mm
Dir
 
Spd
km/h
Gust
km/h
Spd
kts
Gust
kts
02/11:30pm 13.4 10.5 6.7 64 3.2 WSW 11 17 6 9 1021.0 1020.8 0.0
02/11:00pm 14.0 11.6 6.8 62 3.5 WSW 9 13 5 7 1021.2 1021.0 0.0
02/10:30pm 14.7 12.3 7.0 60 3.8 SW 9 15 5 8 1021.1 1020.9 0.0
02/10:00pm 15.4 12.6 6.9 57 4.2 SW 11 17 6 9 1021.2 1021.0 0.0
02/09:30pm 15.9 13.9 6.9 55 4.4 SW 7 13 4 7 1021.2 1021.0 0.0
02/09:00pm 16.8 14.0 6.9 52 4.9 SW 11 13 6 7 1021.1 1020.9 0.0
02/08:30pm 17.5 15.0 6.7 49 5.4 SSW 9 13 5 7 1020.9 1020.7 0.0
02/08:00pm 18.1 15.2 6.3 46 5.8 S 11 15 6 8 1020.4 1020.2 0.0
02/07:30pm 18.5 15.2 6.4 45 6.0 S 13 17 7 9 1020.0 1019.8 0.0
02/07:00pm 19.3 16.0 6.4 43 6.4 S 13 17 7 9 1019.8 1019.6 0.0
02/06:30pm 19.6 16.2 6.0 41 6.8 SSW 13 15 7 8 1019.4 1019.2 0.0
02/06:00pm 19.9 16.6 6.3 41 6.8 SSW 13 15 7 8 1018.8 1018.7 0.0
02/05:30pm 20.1 17.0 5.7 39 7.1 S 11 15 6 8 1018.6 1018.5 0.0
02/05:00pm 21.3 18.4 4.8 34 8.1 WSW 9 13 5 7 1018.4 1018.3 0.0
02/04:30pm 22.5 19.6 4.5 31 8.9 WSW 9 19 5 10 1018.1 1018.0 0.0
02/04:00pm 23.2 20.3 4.7 30 9.2 WSW 9 17 5 9 1018.1 1018.0 0.0
02/03:30pm 23.6 21.2 6.8 34 8.7 SW 9 13 5 7 1018.1 1018.0 0.0
02/03:00pm 23.0 20.5 6.7 35 8.4 S 9 17 5 9 1018.2 1018.1 0.0
02/02:30pm 23.1 20.7 7.2 36 8.3 SW 9 17 5 9 1018.3 1018.2 0.0
02/02:00pm 22.6 19.6 7.6 38 7.8 SSW 13 20 7 11 1018.5 1018.4 0.0
02/01:30pm 22.5 19.9 7.9 39 7.7 SSW 11 20 6 11 1018.9 1018.8 0.0
02/01:00pm 22.5 19.9 6.3 35 8.2 SW 9 17 5 9 1019.6 1019.4 0.0
02/12:30pm 21.6 18.1 7.1 39 7.5 SW 15 24 8 13 1020.0 1019.8 0.0
02/12:00pm 21.9 19.5 8.8 43 7.0 SW 11 19 6 10 1020.7 1020.5 0.0
02/11:30am 21.8 20.2 10.3 48 6.3 SSW 9 17 5 9 1021.3 1021.1 0.0
02/11:00am 20.3 17.5 8.6 47 6.1 SSW 13 20 7 11 1021.8 1021.6 0.0
02/10:30am 19.8 17.8 10.0 53 5.3 SSW 11 17 6 9 1022.4 1022.2 0.0

Other Formats:

Comma delimited format used in spreadsheet applications
http://www.bom.gov.au/fwo/IDQ60801/IDQ60801.94380.axf

JavaScript Object Notation format (JSON) in row-major order
http://www.bom.gov.au/fwo/IDQ60801/IDQ60801.94380.json